Starlink 11575

operational
NORAD ID: 63308 Int'l Des: 2025-057 Owner: SPXS Country: US Constellation: starlink
LEOCIRCULAR

About Starlink 11575

Description loading...

Live Position

Loading 3D Globe...

Upcoming Passes

Altitude History

Altitude vs Time

uPlot chart will show altitude changes over time

Two-Line Element Set

1 63308U 25057B 25304.33955397 .00161936 00000-0 12362-2 0 9999
2 63308 42.9984 324.2621 0000993 216.0548 144.0253 15.70934231 36839
Epoch: Oct 31, 2025 • Age: 53 hours

Current Status

Altitude 353.5 km
Velocity 7.70 km/s
Sub-Earth Point 20.44°N, 124.16°W
Launch Date Mar 18, 2025
Age 0.6 years
Type internet

Technical Details

Classification Payload
Mass 960.00 kg
Dry Mass 910.00 kg
Total Mass 960.00 kg
Length 0.30 m
Diameter 4.10 m
Span 29.00 m
Shape Box + pan
Manufacturer SPXS
Bus Type Starlink V2MD
Phase Status In Orbit
Owner/State SPXS/US

Large Constellations

Loading constellations...